Wind_Speed
10 11 11 10 10 9 9 9 9 9 9 10 10 11 11 11 10 11 11 11 11 11 10 11 11 12 11 12 12 12 12 11 10 9 9 8 8 8 7 7 6 5 5
11 11 10 11 10 10 10 9 9 9 10 10 10 11 11 11 11 12 12 12 12 12 12 13 13 13 13 14 13 14 14 13 12 11 10 10 10 10 9 9 8 7 7
11 11 11 11 10 10 9 9 9 9 9 10 10 10 10 11 12 11 12 13 13 13 14 14 13 14 14 15 15 15 15 15 14 14 13 12 12 11 11 11 10 10 9
12 11 11 11 11 10 10 9 9 9 9 10 10 10 10 11 12 13 13 13 14 14 15 14 14 14 15 16 16 16 16 16 16 16 16 15 15 14 13 13 13 12 12
12 11 11 11 11 10 10 9 9 9 9 9 10 10 11 11 12 13 14 14 14 15 15 14 15 15 15 16 17 17 17 17 17 17 18 18 17 17 16 15 15 14 14
12 11 11 11 11 10 9 9 9 9 8 8 9 10 11 11 12 13 14 14 14 15 15 15 16 17 17 16 17 19 18 18 18 17 18 19 19 19 18 17 16 16 16
11 10 10 11 11 10 10 10 9 9 8 8 8 9 9 10 11 11 12 13 14 15 15 16 17 17 17 17 17 18 18 18 18 19 19 19 20 20 20 20 20 19 18
11 10 10 11 10 10 9 9 9 8 8 8 8 8 8 9 9 10 11 13 13 14 15 16 16 17 17 17 17 18 19 19 20 20 19 20 20 22 22 22 22 22 21
11 10 9 10 10 10 9 8 8 8 8 8 8 8 8 8 8 9 10 10 11 11 12 13 15 16 17 17 17 17 18 19 19 20 21 21 21 21 22 22 23 23 23
10 10 9 9 9 9 8 8 8 8 8 8 8 8 8 8 8 9 9 9 10 10 11 12 14 15 15 16 16 17 17 18 20 21 21 23 22 22 23 24 23 24 24
10 9 9 9 8 8 8 7 7 7 7 7 7 7 8 8 9 9 9 9 10 10 11 12 13 14 15 15 16 17 17 18 18 20 21 22 23 23 24 25 25 25 25
9 8 8 8 8 8 7 7 6 6 6 6 7 7 8 8 8 8 8 9 10 11 11 11 12 13 14 15 16 16 16 17 18 18 20 21 22 23 23 25 26 25 25
9 8 8 8 7 7 6 6 6 6 6 6 7 6 7 7 8 8 9 9 10 10 11 11 12 13 13 14 15 15 16 17 17 18 19 20 21 23 23 24 25 25 25
9 9 8 7 7 6 6 6 7 6 6 7 6 6 7 7 7 7 8 9 10 10 10 11 12 12 13 13 14 14 15 16 17 18 18 20 21 22 23 24 24 26 27
10 10 9 8 7 6 6 7 7 7 7 7 6 7 6 6 7 7 8 8 9 10 10 11 11 12 12 13 13 14 14 15 15 17 18 19 20 21 22 23 23 24 25
10 9 9 8 7 6 6 7 7 7 6 7 6 6 6 6 7 7 7 8 9 9 10 10 11 11 12 13 13 14 14 15 15 16 18 19 20 21 22 22 23 24 25
10 10 9 8 8 7 7 6 6 6 6 6 6 6 6 7 7 7 8 9 9 10 11 11 11 12 12 13 14 14 14 15 16 17 18 19 20 21 21 23 24 25 25
11 10 10 9 8 8 7 7 7 7 6 7 7 7 7 8 8 8 9 10 11 11 12 12 13 13 13 14 14 15 16 17 17 18 19 20 20 21 22 23 23 24 25
11 11 10 10 10 9 8 8 8 8 8 8 9 9 9 9 10 10 11 11 12 13 13 14 14 14 15 15 16 16 17 18 19 19 19 20 21 21 22 23 24 25 26
12 11 11 11 10 9 9 10 9 9 10 10 10 11 11 12 12 12 13 13 14 14 15 15 16 16 16 17 17 18 18 19 20 21 21 21 22 22 23 24 25 26 27
13 12 12 11 11 11 11 11 11 11 11 12 13 13 13 14 14 15 15 15 16 16 17 17 17 18 18 19 19 20 20 21 22 23 23 24 24 24 25 26 26 27 28
13 12 12 12 12 12 12 12 13 13 13 14 15 15 16 16 16 17 17 18 18 19 19 19 20 20 21 21 21 22 22 23 24 24 25 26 26 27 27 28 28 29 29
13 14 14 14 14 14 14 14 14 15 15 16 17 17 18 18 18 19 19 20 20 21 21 22 22 23 23 24 24 24 25 25 26 27 28 28 29 29 29 30 30 30 31
15 15 15 15 15 15 16 16 16 17 17 18 18 19 20 20 20 21 21 22 23 23 24 24 24 25 26 26 27 28 28 29 29 30 30 30 31 31 31 32 32 32 32
16 17 17 17 17 18 18 18 18 19 19 20 20 21 22 22 23 23 24 24 25 26 26 27 27 28 28 29 30 31 31 31 31 32 32 32 32 33 34 34 34 35 35
18 18 18 19 19 19 19 20 21 21 22 22 23 23 24 25 25 26 26 27 28 28 29 29 30 31 31 32 33 33 34 34 34 34 35 35 36 36 36 37 37 37 37
Wind_Direction
227 228 227 226 228 229 231 233 239 240 241 242 243 243 244 243 245 245 243 239 241 242 244 245 243 241 240 235 233 230 230 231 228 226 226 225 222 220 219 214 209 209 209
230 231 230 229 230 232 232 236 240 239 240 245 244 245 244 242 243 245 245 243 244 247 248 249 246 243 243 242 239 233 232 233 234 231 232 232 230 227 224 221 218 219 221
229 231 232 231 231 233 233 235 238 239 242 245 246 247 247 245 243 246 247 247 248 251 253 252 251 250 251 248 243 240 237 237 238 237 235 235 236 235 231 229 226 225 229
231 230 229 229 229 231 230 235 241 244 246 246 247 247 247 248 247 249 252 253 253 254 255 256 253 254 259 256 252 248 243 242 242 242 241 239 239 239 236 234 232 233 234
228 231 232 227 224 225 229 235 242 247 247 247 247 248 249 251 252 254 254 255 256 257 257 255 253 256 260 260 255 252 250 247 245 244 244 243 242 242 241 240 238 238 238
227 228 229 224 222 225 229 234 238 244 247 247 248 249 251 255 257 257 258 258 259 259 260 260 258 259 257 258 255 253 254 252 252 249 248 246 245 245 244 243 242 242 243
222 221 223 221 224 226 227 230 233 238 242 248 253 253 255 257 259 260 261 263 265 263 262 262 262 265 263 261 259 258 258 257 255 253 251 248 247 247 248 247 245 245 245
219 221 223 223 227 228 229 229 231 236 240 247 257 257 256 260 264 266 266 267 269 268 265 263 264 266 266 265 262 259 258 259 257 255 254 254 253 250 249 249 247 246 247
221 221 224 225 227 230 229 230 232 237 243 250 256 259 259 265 269 271 273 272 273 271 271 268 265 268 267 268 267 263 261 261 261 258 254 253 255 254 253 253 251 250 249
214 218 222 222 223 226 228 228 231 237 243 250 254 258 262 265 270 275 277 275 276 276 276 273 270 269 269 268 268 265 264 263 261 260 259 257 257 256 254 255 255 254 253
211 215 217 216 218 220 221 224 231 236 242 249 254 258 263 267 271 275 279 278 278 280 280 277 275 274 274 274 272 267 267 267 267 264 262 261 261 260 261 260 259 255 254
206 209 205 205 209 213 216 223 230 239 246 253 259 262 265 269 270 273 276 280 282 283 285 284 285 283 281 279 277 276 274 272 272 272 267 265 263 262 262 262 261 259 257
202 201 200 202 209 211 216 226 235 244 250 258 264 264 267 270 272 272 276 281 286 288 289 290 292 289 286 283 282 280 278 276 275 274 272 271 269 265 265 265 263 262 262
204 202 201 206 213 221 228 236 242 248 257 262 264 266 268 273 276 280 281 285 290 291 291 292 294 293 290 286 286 285 283 282 279 278 277 274 271 268 268 267 266 264 264
208 207 208 212 221 232 241 246 249 257 262 266 267 268 270 277 283 287 287 288 292 294 295 296 298 297 295 293 291 290 290 288 286 284 282 278 276 273 271 271 270 269 267
213 213 214 219 228 240 250 253 254 261 264 266 271 277 280 282 286 288 290 291 295 296 297 299 301 300 296 293 294 293 294 293 291 290 286 282 280 278 276 273 272 272 269
218 219 222 228 237 248 255 256 262 260 265 268 272 276 279 283 285 286 291 294 297 299 300 299 299 300 298 297 295 296 295 296 296 293 291 287 283 281 279 277 276 276 273
219 222 227 234 242 250 255 257 262 264 265 268 273 278 280 283 285 286 289 293 297 299 300 300 299 299 299 300 299 297 297 296 296 294 293 290 286 284 281 280 280 279 278
224 229 236 241 246 251 253 258 263 264 267 271 275 279 282 284 285 286 289 292 295 298 298 298 299 300 300 301 301 299 297 297 296 296 295 293 290 287 286 285 283 283 282
228 232 238 244 248 250 254 259 264 267 270 274 278 280 281 283 284 286 289 291 293 294 296 296 296 297 298 300 300 301 299 298 297 297 297 295 292 290 289 288 286 284 283
232 236 241 244 247 251 257 263 267 270 273 277 280 282 283 283 284 285 288 289 291 292 293 294 295 295 295 297 298 299 299 298 297 296 296 296 294 291 290 289 288 286 284
238 241 244 248 251 255 261 267 270 272 276 279 281 283 285 285 285 286 287 289 290 291 292 292 293 293 293 294 296 297 297 297 297 297 297 296 295 292 290 290 289 287 285
245 247 249 253 256 261 265 269 271 274 277 281 283 284 286 286 286 286 288 289 290 290 290 290 291 291 292 292 293 294 295 295 296 297 296 295 294 293 292 290 289 288 286
251 254 256 259 262 265 268 270 273 276 278 281 284 285 287 288 287 287 287 288 289 289 289 289 290 290 290 291 292 293 294 294 294 295 295 294 294 294 293 291 288 287 287
256 258 259 262 265 267 270 272 275 277 279 281 283 284 285 286 286 286 287 288 288 289 288 288 289 290 290 291 293 294 294 294 294 293 293 293 292 292 292 291 289 287 286
259 261 263 265 267 270 271 273 275 277 279 280 281 283 285 286 286 287 287 288 288 289 289 288 288 289 290 291 292 292 293 293 292 292 292 292 291 290 290 289 289 288 286
Height
5881 5882 5883 5884 5886 5886 5887 5887 5888 5888 5889 5889 5890 5890 5891 5891 5892 5892 5892 5893 5894 5895 5895 5895 5895 5896 5897 5897 5898 5899 5899 5900 5901 5901 5902 5903 5903 5904 5904 5905 5906 5906 5907
5879 5880 5881 5882 5883 5884 5885 5886 5886 5886 5887 5887 5888 5888 5889 5889 5890 5890 5890 5891 5892 5892 5893 5893 5893 5894 5894 5895 5895 5896 5897 5898 5899 5900 5900 5901 5902 5903 5903 5904 5905 5905 5906
5877 5878 5879 5880 5881 5882 5883 5884 5884 5884 5885 5886 5886 5886 5887 5887 5888 5888 5888 5889 5889 5890 5890 5890 5891 5891 5892 5892 5893 5894 5895 5895 5896 5897 5898 5899 5900 5901 5901 5902 5903 5904 5904
5875 5876 5877 5878 5879 5880 5881 5882 5882 5883 5883 5884 5884 5884 5885 5885 5885 5886 5886 5886 5887 5887 5887 5887 5888 5889 5889 5889 5890 5891 5892 5893 5894 5895 5896 5896 5897 5898 5899 5900 5901 5901 5902
5873 5874 5875 5876 5877 5878 5879 5880 5880 5881 5881 5882 5882 5882 5883 5883 5883 5883 5883 5883 5884 5884 5884 5885 5885 5886 5886 5886 5887 5888 5888 5889 5890 5891 5892 5893 5894 5895 5896 5897 5898 5899 5900
5870 5872 5873 5874 5875 5876 5877 5878 5879 5879 5880 5880 5880 5880 5880 5880 5880 5880 5880 5881 5881 5881 5882 5882 5882 5882 5883 5883 5884 5884 5885 5886 5886 5887 5888 5889 5891 5892 5893 5894 5895 5896 5897
5868 5870 5871 5872 5873 5874 5875 5876 5877 5877 5878 5878 5878 5878 5878 5878 5878 5878 5878 5878 5878 5879 5879 5879 5879 5879 5879 5880 5880 5881 5881 5882 5882 5883 5884 5885 5886 5887 5889 5890 5891 5892 5893
5866 5868 5869 5870 5871 5872 5873 5874 5875 5875 5876 5876 5877 5877 5877 5877 5877 5876 5876 5876 5876 5876 5876 5876 5876 5876 5876 5876 5876 5877 5877 5878 5879 5879 5880 5881 5882 5883 5884 5885 5886 5887 5888
5864 5866 5867 5868 5869 5871 5871 5872 5873 5874 5874 5875 5875 5875 5875 5875 5875 5875 5874 5874 5873 5873 5873 5873 5873 5872 5872 5873 5873 5873 5873 5874 5875 5875 5876 5876 5877 5878 5879 5880 5881 5882 5884
5863 5864 5866 5867 5868 5869 5870 5871 5872 5872 5873 5873 5873 5873 5874 5873 5873 5873 5873 5872 5871 5871 5871 5870 5870 5869 5869 5869 5869 5869 5869 5870 5870 5871 5872 5872 5873 5874 5874 5875 5876 5877 5878
5862 5863 5864 5865 5867 5868 5869 5869 5870 5871 5871 5871 5872 5872 5871 5871 5871 5871 5871 5870 5870 5869 5868 5868 5867 5867 5866 5866 5866 5866 5866 5866 5866 5866 5867 5867 5868 5869 5869 5870 5870 5871 5872
5861 5862 5863 5864 5865 5866 5867 5868 5869 5869 5870 5870 5870 5870 5870 5870 5869 5869 5869 5868 5867 5867 5866 5865 5864 5864 5863 5863 5862 5862 5862 5862 5862 5862 5862 5862 5863 5863 5864 5864 5865 5866 5866
5860 5861 5862 5863 5864 5865 5866 5867 5868 5868 5868 5868 5868 5868 5868 5868 5867 5867 5866 5866 5865 5865 5864 5863 5862 5861 5860 5860 5859 5858 5858 5858 5858 5857 5857 5858 5858 5858 5858 5859 5859 5860 5860
5859 5860 5861 5862 5863 5864 5865 5866 5866 5866 5867 5866 5866 5866 5866 5866 5865 5865 5864 5864 5863 5863 5862 5861 5859 5858 5857 5856 5856 5855 5855 5854 5853 5853 5853 5853 5853 5853 5853 5853 5853 5853 5854
5857 5859 5860 5861 5862 5863 5863 5864 5865 5865 5865 5865 5865 5864 5864 5864 5863 5863 5862 5862 5862 5860 5859 5858 5857 5856 5855 5854 5853 5852 5851 5850 5850 5849 5848 5848 5848 5847 5847 5847 5847 5847 5847
5856 5857 5859 5860 5861 5862 5862 5863 5863 5863 5863 5863 5863 5863 5862 5862 5861 5861 5860 5860 5859 5858 5857 5856 5855 5853 5852 5851 5850 5849 5848 5847 5846 5845 5844 5843 5843 5842 5842 5841 5841 5841 5841
5854 5856 5857 5858 5859 5860 5860 5861 5861 5861 5861 5861 5861 5861 5860 5860 5859 5859 5858 5857 5856 5855 5854 5853 5852 5851 5849 5848 5847 5845 5844 5843 5842 5841 5840 5839 5837 5837 5836 5835 5835 5834 5834
5852 5854 5855 5856 5857 5858 5858 5859 5859 5859 5859 5859 5859 5859 5858 5858 5857 5857 5856 5855 5854 5853 5851 5850 5849 5848 5846 5845 5843 5842 5840 5839 5838 5836 5835 5833 5832 5831 5830 5829 5829 5828 5827
5850 5852 5853 5854 5855 5856 5856 5856 5857 5857 5857 5857 5857 5856 5856 5855 5855 5854 5853 5852 5851 5849 5848 5847 5845 5844 5842 5841 5839 5838 5836 5835 5833 5832 5830 5829 5827 5826 5824 5823 5822 5821 5820
5848 5849 5851 5852 5852 5853 5854 5854 5854 5854 5854 5854 5854 5853 5853 5852 5851 5850 5849 5848 5847 5846 5844 5843 5841 5840 5838 5837 5835 5833 5832 5830 5828 5826 5825 5823 5821 5820 5818 5817 5815 5814 5812
5845 5847 5848 5849 5850 5850 5851 5851 5851 5851 5851 5851 5851 5850 5849 5848 5848 5847 5845 5844 5843 5841 5840 5838 5837 5835 5834 5832 5830 5828 5826 5825 5823 5821 5819 5817 5815 5813 5812 5810 5808 5806 5805
5843 5844 5845 5846 5847 5847 5848 5848 5848 5848 5848 5847 5847 5846 5845 5844 5843 5842 5841 5840 5838 5837 5835 5833 5832 5830 5828 5826 5824 5822 5820 5819 5817 5815 5812 5810 5808 5806 5804 5802 5800 5799 5797
5840 5841 5842 5843 5843 5844 5844 5844 5844 5844 5844 5843 5842 5841 5841 5840 5838 5837 5836 5835 5833 5831 5830 5828 5826 5824 5822 5820 5818 5816 5814 5812 5809 5807 5805 5803 5800 5798 5796 5794 5792 5790 5788
5837 5838 5838 5839 5839 5840 5840 5840 5840 5839 5839 5838 5838 5837 5836 5834 5833 5832 5830 5829 5827 5825 5823 5821 5820 5818 5816 5814 5811 5809 5807 5805 5802 5799 5797 5795 5792 5790 5787 5785 5783 5781 5779
5833 5834 5834 5835 5835 5835 5835 5835 5835 5834 5834 5833 5832 5831 5830 5828 5827 5825 5824 5822 5820 5818 5816 5814 5812 5810 5808 5806 5803 5801 5799 5796 5794 5791 5789 5786 5783 5781 5778 5775 5773 5771 5769
5829 5829 5830 5830 5830 5830 5830 5830 5829 5828 5828 5827 5826 5824 5823 5822 5820 5818 5817 5815 5813 5811 5809 5807 5805 5802 5800 5798 5795 5792 5790 5787 5785 5782 5779 5776 5773 5770 5768 5765 5762 5760 5757